This is the latest recevied weather packets stored in our database for station/object OK4PZ-5. If no packets are shown the sender has not sent any weather packets the latest 10 day(s).
| Time | Temp. | Humidity | Pressure | Rain* | Wind** | Luminosity | Snow |
|---|---|---|---|---|---|---|---|
| 1788082202 | 24.44° C | 53% | 1019 hPa | 0 mm | - | - | - |
| 1788081302 | 24.44° C | 54% | 1019 hPa | 0 mm | - | - | - |
| 1788080402 | 24.44° C | 55% | 1019 hPa | 0 mm | - | - | - |
| 1788079502 | 22.78° C | 58% | 1019 hPa | 0 mm | - | - | - |
| 1788078602 | 23.33° C | 58% | 1020 hPa | 0 mm | - | - | - |
| 1788077703 | 23.33° C | 58% | 1019 hPa | 0 mm | - | - | - |
| 1788076802 | 22.78° C | 61% | 1020 hPa | 0 mm | - | - | - |
| 1788075902 | 21.67° C | 64% | 1019 hPa | 0 mm | - | - | - |
| 1788075003 | 20.56° C | 69% | 1019 hPa | 0 mm | - | - | - |
| 1788074102 | 20.56° C | 73% | 1019 hPa | 0 mm | - | - | - |
| 1788073202 | 17.22° C | 84% | 1019 hPa | 0 mm | - | - | - |
| 1788072302 | 16.11° C | 88% | 1019 hPa | 0 mm | - | - | - |
| 1788071403 | 15.56° C | 89% | 1019 hPa | 0 mm | - | - | - |
| 1788070502 | 14.44° C | 91% | 1019 hPa | 0 mm | - | - | - |
| 1788069602 | 13.89° C | 92% | 1019 hPa | 0 mm | - | - | - |
| 1788068702 | 13.89° C | 94% | 1019 hPa | 0 mm | - | - | - |
| 1788067803 | 13.33° C | 94% | 1019 hPa | 0 mm | - | - | - |
| 1788066902 | 12.78° C | 96% | 1019 hPa | 0 mm | - | - | - |
| 1788066002 | 12.78° C | 97% | 1019 hPa | 0 mm | - | - | - |
| 1788065102 | 12.78° C | 98% | 1019 hPa | 0 mm | - | - | - |
| 1788064202 | 12.22° C | 98% | 1019 hPa | 0 mm | - | - | - |
| 1788063302 | 12.22° C | 98% | 1019 hPa | 0 mm | - | - | - |
| 1788062402 | 11.67° C | 98% | 1019 hPa | 0 mm | - | - | - |
| 1788061502 | 11.67° C | 98% | 1019 hPa | 0 mm | - | - | - |
| 1788060602 | 11.67° C | 98% | 1019 hPa | 0 mm | - | - | - |
* Rain latest hour (hover to see other rain measurements)
** Current wind speed in m/s (hover to see current wind gust speed)